カタログに戻る

INNOCUBE

TUBSAT-31

運用中アマチュア無線SSO
NORAD 62616·PAYLOAD·🇩🇪 Germany

打ち上げ Jan 14, 2025 から Vandenberg Space Force Base

Loading…

次のパス (今後24時間)

TLE

最新Source: Space-Track

元期: Sep 14, 2026, 11:11 UTC

1 62616U 25009H   26257.46614771  .00005607  00000-0  21050-3 0  9994
2 62616  97.3847 336.5627 0006209  31.5598 328.6013 15.27589731 92441

AllMySatでINNOCUBEをリアルタイム追跡

Download on the App Store